GFSMW_prec_precacc_057.txt.gz
Total_Precipitation_Accumulation
0.01 0.04 0.07 0.08 0.05 0.06 0.26 0.39 0.59 0.64 0.40 0.23 0.17 0.13 0.08 0.08 0.09 0.11 0.08 0.06 0.05 0.03 0.02 0.06 0.07 0.17 0.08 0.02 0.00 0.00 0.00 0.00 0.00 0.00 0.00 0.00 0.00 0.00 0.00 0.00 0.00 0.00 0.01
0.00 0.01 0.03 0.05 0.07 0.14 0.36 0.46 0.31 0.18 0.10 0.16 0.08 0.04 0.02 0.03 0.04 0.07 0.03 0.03 0.08 0.05 0.03 0.04 0.04 0.08 0.07 0.01 0.00 0.00 0.00 0.00 0.00 0.00 0.00 0.00 0.00 0.00 0.00 0.00 0.00 0.01 0.02
0.02 0.02 0.04 0.03 0.05 0.07 0.11 0.23 0.13 0.06 0.01 0.03 0.02 0.03 0.01 0.01 0.06 0.07 0.08 0.05 0.05 0.06 0.07 0.04 0.04 0.06 0.12 0.01 0.01 0.01 0.02 0.02 0.00 0.00 0.00 0.00 0.00 0.00 0.00 0.00 0.00 0.00 0.00
0.00 0.00 0.00 0.00 0.03 0.03 0.05 0.22 0.13 0.05 0.03 0.03 0.01 0.03 0.06 0.03 0.04 0.04 0.04 0.02 0.04 0.07 0.14 0.18 0.17 0.12 0.18 0.10 0.05 0.04 0.04 0.05 0.03 0.02 0.01 0.00 0.01 0.01 0.01 0.00 0.00 0.00 0.00
0.01 0.01 0.01 0.00 0.00 0.06 0.08 0.19 0.15 0.15 0.08 0.08 0.12 0.24 0.17 0.12 0.11 0.04 0.06 0.04 0.11 0.15 0.19 0.23 0.28 0.25 0.19 0.22 0.18 0.11 0.08 0.06 0.06 0.05 0.03 0.02 0.03 0.05 0.05 0.02 0.00 0.00 0.00
0.02 0.02 0.01 0.01 0.01 0.02 0.11 0.18 0.13 0.20 0.22 0.26 0.19 0.20 0.28 0.17 0.15 0.14 0.23 0.24 0.30 0.29 0.34 0.31 0.26 0.27 0.25 0.24 0.22 0.20 0.21 0.19 0.15 0.07 0.07 0.07 0.09 0.08 0.06 0.04 0.01 0.00 0.00
0.00 0.01 0.00 0.00 0.02 0.02 0.15 0.18 0.15 0.20 0.22 0.28 0.15 0.18 0.29 0.35 0.39 0.36 0.43 0.56 0.74 0.73 0.31 0.21 0.18 0.18 0.22 0.21 0.13 0.09 0.09 0.10 0.10 0.10 0.11 0.10 0.08 0.05 0.03 0.03 0.02 0.02 0.00
0.00 0.00 0.00 0.02 0.08 0.07 0.12 0.26 0.23 0.30 0.22 0.15 0.19 0.24 0.30 0.37 0.49 0.41 0.46 0.61 0.41 0.29 0.18 0.12 0.11 0.12 0.14 0.11 0.05 0.04 0.04 0.04 0.06 0.06 0.07 0.07 0.03 0.02 0.02 0.05 0.11 0.10 0.02
0.00 0.01 0.00 0.01 0.07 0.10 0.12 0.16 0.12 0.24 0.23 0.25 0.33 0.24 0.18 0.18 0.25 0.30 0.25 0.22 0.20 0.20 0.19 0.16 0.12 0.10 0.11 0.10 0.07 0.08 0.08 0.08 0.08 0.08 0.05 0.03 0.02 0.02 0.03 0.06 0.13 0.31 0.25
0.00 0.00 0.00 0.01 0.03 0.04 0.08 0.17 0.08 0.04 0.12 0.21 0.22 0.14 0.17 0.22 0.14 0.15 0.18 0.26 0.33 0.27 0.35 0.23 0.15 0.10 0.08 0.09 0.08 0.06 0.05 0.05 0.05 0.06 0.07 0.08 0.06 0.07 0.08 0.11 0.13 0.14 0.24
0.00 0.00 0.00 0.01 0.01 0.01 0.05 0.10 0.20 0.30 0.26 0.18 0.09 0.10 0.25 0.51 0.42 0.32 0.28 0.31 0.42 0.46 0.54 0.26 0.11 0.12 0.14 0.08 0.04 0.05 0.06 0.07 0.07 0.08 0.12 0.12 0.10 0.08 0.07 0.05 0.03 0.03 0.04
0.00 0.00 0.00 0.00 0.00 0.02 0.08 0.16 0.26 0.37 0.46 0.29 0.28 0.49 0.69 0.89 0.80 0.63 0.75 0.53 0.29 0.16 0.17 0.16 0.11 0.08 0.10 0.12 0.11 0.07 0.05 0.08 0.16 0.26 0.20 0.11 0.05 0.02 0.01 0.00 0.00 0.00 0.00
0.00 0.00 0.00 0.00 0.00 0.01 0.07 0.15 0.16 0.23 0.44 0.51 0.58 0.55 0.47 0.67 0.82 0.66 0.48 0.32 0.19 0.17 0.12 0.10 0.09 0.08 0.09 0.07 0.08 0.08 0.14 0.23 0.20 0.09 0.03 0.01 0.00 0.00 0.00 0.00 0.00 0.00 0.01
0.00 0.00 0.00 0.00 0.01 0.08 0.09 0.12 0.21 0.25 0.31 0.30 0.23 0.20 0.31 0.27 0.31 0.31 0.29 0.16 0.12 0.11 0.10 0.10 0.09 0.08 0.07 0.10 0.13 0.17 0.15 0.06 0.02 0.02 0.01 0.01 0.00 0.00 0.00 0.01 0.02 0.04 0.05
0.00 0.01 0.01 0.01 0.02 0.06 0.05 0.08 0.09 0.15 0.21 0.18 0.11 0.17 0.18 0.17 0.20 0.22 0.17 0.16 0.13 0.07 0.06 0.06 0.07 0.09 0.13 0.16 0.15 0.07 0.03 0.01 0.01 0.00 0.00 0.00 0.00 0.01 0.01 0.02 0.03 0.03 0.04
0.00 0.00 0.00 0.02 0.02 0.02 0.02 0.06 0.09 0.14 0.12 0.10 0.08 0.13 0.13 0.17 0.22 0.15 0.12 0.08 0.10 0.09 0.06 0.09 0.12 0.21 0.22 0.10 0.04 0.02 0.00 0.00 0.00 0.00 0.00 0.00 0.00 0.00 0.00 0.01 0.01 0.03 0.07
0.00 0.00 0.00 0.00 0.02 0.03 0.02 0.04 0.07 0.05 0.05 0.05 0.05 0.08 0.09 0.14 0.14 0.15 0.09 0.08 0.14 0.15 0.16 0.25 0.27 0.15 0.03 0.06 0.03 0.01 0.00 0.00 0.00 0.00 0.00 0.00 0.00 0.00 0.00 0.00 0.01 0.02 0.03
0.00 0.00 0.00 0.01 0.02 0.03 0.00 0.01 0.02 0.03 0.03 0.02 0.04 0.05 0.07 0.10 0.12 0.12 0.10 0.17 0.22 0.27 0.26 0.15 0.05 0.02 0.03 0.04 0.01 0.00 0.00 0.00 0.00 0.00 0.00 0.00 0.00 0.00 0.01 0.08 0.07 0.02 0.01
0.00 0.00 0.00 0.00 0.00 0.00 0.00 0.01 0.01 0.01 0.02 0.04 0.06 0.06 0.05 0.08 0.15 0.28 0.35 0.32 0.21 0.10 0.04 0.03 0.02 0.01 0.01 0.01 0.00 0.00 0.00 0.00 0.00 0.00 0.00 0.00 0.01 0.01 0.07 0.10 0.04 0.01 0.01
0.00 0.00 0.00 0.00 0.00 0.00 0.00 0.00 0.00 0.00 0.01 0.02 0.03 0.06 0.14 0.27 0.33 0.28 0.17 0.07 0.03 0.02 0.01 0.00 0.00 0.00 0.00 0.00 0.00 0.00 0.00 0.00 0.00 0.00 0.00 0.00 0.03 0.10 0.08 0.09 0.07 0.06 0.03
0.00 0.00 0.00 0.00 0.00 0.00 0.00 0.00 0.00 0.01 0.04 0.09 0.16 0.25 0.29 0.24 0.14 0.06 0.02 0.01 0.01 0.00 0.00 0.00 0.00 0.00 0.00 0.00 0.00 0.00 0.00 0.00 0.01 0.00 0.00 0.01 0.06 0.09 0.05 0.06 0.08 0.14 0.08
0.00 0.00 0.00 0.00 0.00 0.00 0.01 0.03 0.04 0.05 0.09 0.14 0.16 0.12 0.04 0.00 0.00 0.00 0.00 0.00 0.00 0.00 0.00 0.00 0.00 0.00 0.00 0.00 0.00 0.00 0.00 0.00 0.01 0.03 0.03 0.04 0.07 0.05 0.04 0.07 0.12 0.08 0.06
0.00 0.00 0.00 0.00 0.01 0.04 0.06 0.04 0.02 0.03 0.04 0.02 0.01 0.00 0.00 0.00 0.00 0.00 0.00 0.00 0.00 0.00 0.00 0.00 0.00 0.01 0.01 0.02 0.00 0.00 0.00 0.00 0.01 0.03 0.05 0.06 0.05 0.05 0.07 0.08 0.07 0.07 0.16
0.00 0.00 0.04 0.08 0.09 0.04 0.01 0.01 0.01 0.01 0.01 0.00 0.00 0.00 0.00 0.00 0.00 0.00 0.00 0.00 0.00 0.00 0.00 0.00 0.01 0.01 0.01 0.02 0.02 0.01 0.01 0.01 0.02 0.02 0.04 0.04 0.05 0.08 0.12 0.09 0.11 0.16 0.17
0.03 0.08 0.07 0.04 0.02 0.01 0.01 0.01 0.00 0.00 0.00 0.00 0.00 0.00 0.00 0.00 0.00 0.00 0.00 0.00 0.00 0.00 0.00 0.00 0.01 0.02 0.02 0.02 0.02 0.05 0.06 0.08 0.08 0.11 0.16 0.14 0.13 0.12 0.12 0.11 0.10 0.13 0.14
0.12 0.05 0.02 0.02 0.02 0.01 0.00 0.00 0.00 0.00 0.00 0.00 0.00 0.02 0.03 0.02 0.01 0.00 0.00 0.00 0.00 0.00 0.00 0.00 0.00 0.01 0.01 0.00 0.01 0.02 0.03 0.07 0.11 0.24 0.16 0.09 0.09 0.09 0.10 0.13 0.13 0.13 0.16

GFSMW_prec_precacc_063.txt.gz
Total_Precipitation_Accumulation
0.01 0.04 0.07 0.08 0.05 0.08 0.29 0.45 0.69 0.83 0.52 0.31 0.21 0.18 0.13 0.09 0.10 0.13 0.09 0.07 0.07 0.07 0.05 0.10 0.11 0.20 0.12 0.06 0.03 0.03 0.01 0.00 0.00 0.00 0.00 0.00 0.00 0.00 0.00 0.00 0.00 0.00 0.01
0.00 0.01 0.03 0.05 0.07 0.15 0.36 0.46 0.32 0.25 0.25 0.25 0.12 0.05 0.04 0.03 0.05 0.08 0.04 0.04 0.10 0.09 0.07 0.09 0.07 0.09 0.11 0.04 0.02 0.02 0.02 0.01 0.00 0.00 0.00 0.00 0.00 0.00 0.00 0.00 0.00 0.01 0.02
0.02 0.02 0.04 0.04 0.06 0.07 0.11 0.23 0.13 0.07 0.05 0.08 0.08 0.04 0.01 0.02 0.06 0.08 0.08 0.05 0.06 0.08 0.11 0.10 0.09 0.10 0.15 0.06 0.03 0.02 0.03 0.03 0.01 0.01 0.01 0.01 0.00 0.00 0.00 0.00 0.00 0.00 0.00
0.00 0.00 0.00 0.00 0.03 0.03 0.05 0.22 0.13 0.05 0.03 0.04 0.04 0.04 0.07 0.05 0.05 0.04 0.04 0.02 0.04 0.07 0.15 0.19 0.18 0.14 0.20 0.13 0.07 0.05 0.05 0.05 0.03 0.03 0.01 0.01 0.01 0.02 0.02 0.01 0.00 0.00 0.00
0.01 0.01 0.01 0.00 0.00 0.06 0.08 0.19 0.15 0.15 0.08 0.08 0.13 0.24 0.17 0.12 0.11 0.04 0.07 0.04 0.11 0.15 0.19 0.23 0.28 0.25 0.19 0.22 0.18 0.13 0.10 0.08 0.08 0.07 0.05 0.03 0.04 0.06 0.07 0.06 0.02 0.01 0.01
0.02 0.02 0.01 0.01 0.01 0.02 0.11 0.18 0.13 0.20 0.22 0.26 0.19 0.20 0.28 0.17 0.15 0.14 0.23 0.24 0.30 0.29 0.34 0.31 0.26 0.27 0.25 0.24 0.26 0.29 0.32 0.29 0.29 0.28 0.26 0.20 0.17 0.12 0.10 0.08 0.05 0.06 0.04
0.00 0.01 0.00 0.00 0.02 0.02 0.15 0.18 0.15 0.20 0.22 0.28 0.15 0.18 0.29 0.35 0.39 0.36 0.43 0.56 0.74 0.73 0.31 0.21 0.18 0.18 0.22 0.23 0.18 0.16 0.16 0.19 0.21 0.24 0.23 0.19 0.15 0.09 0.07 0.08 0.07 0.06 0.03
0.00 0.00 0.00 0.02 0.08 0.07 0.12 0.26 0.23 0.30 0.22 0.15 0.19 0.24 0.30 0.37 0.49 0.41 0.46 0.61 0.41 0.29 0.18 0.12 0.11 0.12 0.15 0.16 0.13 0.09 0.09 0.09 0.13 0.14 0.17 0.15 0.11 0.08 0.06 0.07 0.13 0.11 0.02
0.00 0.01 0.00 0.01 0.07 0.10 0.12 0.16 0.12 0.24 0.23 0.25 0.33 0.24 0.18 0.18 0.25 0.30 0.25 0.22 0.20 0.20 0.19 0.16 0.12 0.11 0.11 0.12 0.13 0.12 0.13 0.13 0.12 0.13 0.12 0.08 0.06 0.06 0.04 0.07 0.14 0.31 0.25
0.00 0.00 0.00 0.01 0.03 0.04 0.08 0.17 0.08 0.04 0.12 0.21 0.22 0.14 0.17 0.22 0.14 0.15 0.18 0.26 0.33 0.29 0.37 0.27 0.20 0.14 0.12 0.14 0.14 0.10 0.10 0.10 0.09 0.10 0.12 0.11 0.08 0.09 0.08 0.11 0.13 0.15 0.25
0.00 0.00 0.00 0.01 0.01 0.02 0.06 0.11 0.20 0.30 0.26 0.18 0.09 0.10 0.25 0.51 0.42 0.32 0.28 0.31 0.43 0.47 0.57 0.41 0.25 0.20 0.21 0.18 0.15 0.16 0.19 0.18 0.17 0.15 0.17 0.16 0.13 0.09 0.07 0.05 0.03 0.03 0.05
0.00 0.00 0.00 0.00 0.00 0.02 0.08 0.17 0.29 0.38 0.48 0.31 0.28 0.49 0.69 0.89 0.80 0.63 0.75 0.53 0.29 0.16 0.17 0.20 0.17 0.14 0.19 0.25 0.24 0.19 0.15 0.17 0.26 0.34 0.30 0.19 0.08 0.03 0.01 0.01 0.00 0.00 0.00
0.00 0.00 0.00 0.00 0.00 0.01 0.07 0.15 0.16 0.24 0.45 0.53 0.59 0.55 0.47 0.68 0.82 0.67 0.48 0.35 0.25 0.21 0.16 0.13 0.15 0.14 0.16 0.19 0.21 0.21 0.27 0.36 0.36 0.24 0.16 0.08 0.04 0.02 0.02 0.01 0.01 0.00 0.01
0.00 0.00 0.00 0.00 0.01 0.08 0.09 0.12 0.21 0.25 0.31 0.30 0.23 0.20 0.31 0.28 0.32 0.32 0.31 0.19 0.22 0.16 0.13 0.11 0.11 0.11 0.10 0.14 0.21 0.29 0.25 0.12 0.08 0.06 0.04 0.03 0.03 0.02 0.03 0.03 0.03 0.04 0.05
0.00 0.01 0.01 0.01 0.02 0.06 0.05 0.08 0.09 0.15 0.21 0.18 0.11 0.17 0.18 0.18 0.22 0.25 0.20 0.20 0.19 0.16 0.17 0.13 0.11 0.12 0.15 0.21 0.18 0.10 0.06 0.04 0.04 0.02 0.02 0.02 0.07 0.07 0.04 0.04 0.04 0.04 0.04
0.00 0.00 0.00 0.02 0.02 0.02 0.02 0.06 0.09 0.14 0.12 0.10 0.08 0.13 0.13 0.17 0.24 0.19 0.16 0.13 0.17 0.22 0.20 0.19 0.26 0.34 0.30 0.20 0.13 0.08 0.04 0.04 0.04 0.03 0.02 0.04 0.08 0.02 0.04 0.04 0.03 0.04 0.07
0.00 0.00 0.00 0.00 0.02 0.03 0.02 0.04 0.07 0.05 0.05 0.05 0.05 0.08 0.09 0.14 0.14 0.19 0.15 0.16 0.25 0.33 0.33 0.41 0.40 0.27 0.11 0.16 0.12 0.08 0.03 0.04 0.04 0.03 0.02 0.02 0.03 0.06 0.02 0.03 0.03 0.02 0.04
0.00 0.00 0.00 0.01 0.02 0.03 0.00 0.01 0.02 0.03 0.03 0.02 0.04 0.05 0.07 0.10 0.13 0.18 0.14 0.21 0.32 0.38 0.35 0.26 0.17 0.12 0.11 0.16 0.09 0.07 0.02 0.03 0.04 0.03 0.03 0.03 0.03 0.03 0.03 0.08 0.07 0.03 0.01
0.00 0.00 0.00 0.00 0.00 0.00 0.00 0.01 0.01 0.01 0.02 0.04 0.06 0.06 0.06 0.08 0.16 0.30 0.38 0.35 0.26 0.18 0.14 0.11 0.10 0.09 0.09 0.14 0.08 0.04 0.01 0.04 0.04 0.04 0.04 0.04 0.03 0.03 0.10 0.10 0.04 0.01 0.01
0.00 0.00 0.00 0.00 0.00 0.00 0.00 0.00 0.00 0.00 0.01 0.02 0.04 0.06 0.15 0.28 0.34 0.30 0.20 0.12 0.09 0.08 0.06 0.07 0.07 0.10 0.07 0.13 0.06 0.04 0.02 0.03 0.03 0.04 0.03 0.05 0.04 0.12 0.10 0.09 0.07 0.06 0.03
0.00 0.00 0.00 0.00 0.00 0.00 0.00 0.00 0.00 0.01 0.04 0.09 0.16 0.25 0.30 0.26 0.16 0.08 0.04 0.03 0.03 0.04 0.03 0.04 0.04 0.05 0.06 0.08 0.08 0.07 0.04 0.05 0.05 0.03 0.01 0.02 0.08 0.10 0.06 0.06 0.08 0.14 0.08
0.00 0.00 0.00 0.00 0.00 0.00 0.01 0.03 0.04 0.05 0.09 0.14 0.16 0.15 0.06 0.03 0.04 0.04 0.02 0.02 0.02 0.02 0.04 0.04 0.04 0.05 0.06 0.10 0.09 0.07 0.05 0.04 0.02 0.03 0.03 0.05 0.08 0.05 0.04 0.07 0.12 0.08 0.06
0.00 0.00 0.00 0.00 0.01 0.04 0.06 0.04 0.02 0.03 0.04 0.03 0.03 0.03 0.03 0.04 0.04 0.03 0.05 0.04 0.04 0.05 0.06 0.04 0.05 0.05 0.06 0.07 0.06 0.03 0.01 0.00 0.01 0.03 0.05 0.06 0.05 0.05 0.07 0.08 0.07 0.07 0.16
0.00 0.00 0.04 0.08 0.09 0.04 0.01 0.01 0.03 0.04 0.05 0.06 0.04 0.04 0.02 0.02 0.02 0.03 0.04 0.05 0.05 0.07 0.08 0.08 0.06 0.05 0.04 0.02 0.02 0.02 0.01 0.02 0.02 0.02 0.04 0.05 0.06 0.08 0.12 0.09 0.11 0.16 0.17
0.04 0.08 0.07 0.04 0.03 0.02 0.03 0.03 0.03 0.04 0.03 0.01 0.01 0.00 0.00 0.01 0.00 0.01 0.02 0.02 0.03 0.04 0.03 0.04 0.05 0.06 0.03 0.02 0.03 0.05 0.07 0.09 0.10 0.13 0.17 0.14 0.13 0.12 0.12 0.11 0.10 0.13 0.14
0.13 0.05 0.02 0.02 0.02 0.02 0.02 0.01 0.01 0.01 0.01 0.01 0.00 0.02 0.03 0.02 0.01 0.00 0.01 0.02 0.01 0.02 0.02 0.04 0.05 0.07 0.07 0.08 0.09 0.09 0.07 0.08 0.12 0.25 0.16 0.09 0.09 0.09 0.10 0.13 0.13 0.13 0.16

GFSMW_prec_precacc_069.txt.gz
Total_Precipitation_Accumulation
0.01 0.04 0.07 0.08 0.06 0.12 0.36 0.48 0.71 0.87 0.57 0.33 0.25 0.20 0.16 0.15 0.17 0.17 0.11 0.07 0.07 0.07 0.05 0.10 0.11 0.20 0.12 0.06 0.03 0.03 0.03 0.02 0.01 0.00 0.00 0.00 0.00 0.00 0.00 0.00 0.00 0.00 0.01
0.00 0.01 0.03 0.05 0.08 0.15 0.37 0.47 0.32 0.27 0.27 0.26 0.13 0.06 0.06 0.05 0.07 0.10 0.05 0.05 0.10 0.09 0.07 0.09 0.07 0.09 0.11 0.05 0.02 0.02 0.03 0.02 0.02 0.00 0.03 0.03 0.02 0.00 0.00 0.00 0.00 0.01 0.02
0.02 0.02 0.04 0.04 0.06 0.08 0.12 0.24 0.13 0.07 0.05 0.09 0.09 0.05 0.02 0.04 0.09 0.09 0.09 0.05 0.06 0.08 0.11 0.10 0.09 0.10 0.15 0.06 0.04 0.02 0.03 0.17 0.07 0.01 0.09 0.11 0.06 0.05 0.01 0.00 0.00 0.00 0.00
0.00 0.00 0.00 0.00 0.03 0.03 0.05 0.23 0.13 0.06 0.04 0.04 0.05 0.05 0.07 0.06 0.05 0.05 0.04 0.03 0.04 0.07 0.15 0.19 0.18 0.15 0.21 0.13 0.07 0.06 0.05 0.35 0.23 0.08 0.02 0.01 0.03 0.05 0.04 0.01 0.00 0.00 0.01
0.01 0.01 0.01 0.00 0.00 0.06 0.08 0.20 0.15 0.15 0.08 0.10 0.14 0.25 0.18 0.12 0.12 0.05 0.07 0.05 0.12 0.16 0.20 0.25 0.31 0.26 0.24 0.28 0.35 0.26 0.20 0.25 0.26 0.11 0.10 0.04 0.04 0.06 0.07 0.07 0.06 0.02 0.03
0.02 0.02 0.01 0.01 0.01 0.02 0.11 0.18 0.14 0.21 0.22 0.26 0.21 0.21 0.29 0.17 0.15 0.15 0.23 0.24 0.30 0.30 0.35 0.33 0.28 0.31 0.31 0.32 0.36 0.38 0.47 0.44 0.42 0.36 0.32 0.25 0.20 0.15 0.13 0.11 0.12 0.16 0.13
0.00 0.01 0.00 0.00 0.02 0.02 0.15 0.18 0.15 0.20 0.22 0.28 0.15 0.18 0.29 0.35 0.39 0.36 0.43 0.56 0.74 0.73 0.31 0.21 0.18 0.18 0.24 0.26 0.22 0.22 0.21 0.25 0.28 0.31 0.29 0.25 0.20 0.21 0.26 0.25 0.19 0.15 0.08
0.00 0.00 0.00 0.02 0.08 0.07 0.12 0.26 0.23 0.30 0.22 0.15 0.19 0.24 0.30 0.37 0.49 0.41 0.46 0.61 0.41 0.29 0.18 0.12 0.11 0.12 0.16 0.17 0.15 0.14 0.12 0.14 0.17 0.19 0.21 0.21 0.16 0.16 0.17 0.18 0.23 0.18 0.05
0.00 0.01 0.00 0.01 0.07 0.10 0.12 0.16 0.12 0.24 0.23 0.25 0.33 0.24 0.18 0.18 0.25 0.30 0.25 0.22 0.20 0.20 0.19 0.16 0.12 0.11 0.11 0.12 0.14 0.14 0.16 0.16 0.16 0.17 0.16 0.13 0.10 0.09 0.09 0.10 0.15 0.34 0.26
0.00 0.00 0.00 0.01 0.03 0.04 0.08 0.17 0.08 0.04 0.12 0.21 0.22 0.14 0.17 0.22 0.14 0.15 0.18 0.26 0.33 0.29 0.37 0.27 0.20 0.14 0.12 0.14 0.14 0.11 0.11 0.13 0.12 0.13 0.15 0.15 0.12 0.13 0.11 0.13 0.16 0.17 0.30
0.00 0.00 0.00 0.01 0.01 0.02 0.06 0.11 0.20 0.30 0.26 0.18 0.09 0.10 0.25 0.51 0.42 0.32 0.28 0.31 0.43 0.47 0.57 0.41 0.25 0.20 0.21 0.18 0.15 0.17 0.20 0.19 0.20 0.20 0.22 0.21 0.19 0.20 0.23 0.28 0.35 0.41 0.43
0.00 0.00 0.00 0.00 0.00 0.02 0.08 0.17 0.29 0.38 0.48 0.31 0.28 0.49 0.69 0.89 0.80 0.63 0.75 0.53 0.29 0.16 0.17 0.20 0.17 0.14 0.19 0.25 0.24 0.20 0.17 0.21 0.31 0.41 0.40 0.32 0.28 0.32 0.33 0.34 0.30 0.24 0.20
0.00 0.00 0.00 0.00 0.00 0.01 0.07 0.15 0.16 0.24 0.45 0.53 0.59 0.55 0.47 0.68 0.82 0.67 0.48 0.35 0.25 0.21 0.16 0.13 0.15 0.14 0.16 0.19 0.21 0.22 0.28 0.40 0.42 0.32 0.28 0.25 0.26 0.26 0.22 0.20 0.17 0.14 0.13
0.00 0.00 0.00 0.00 0.01 0.08 0.09 0.12 0.21 0.25 0.31 0.30 0.23 0.20 0.31 0.28 0.32 0.32 0.31 0.19 0.22 0.16 0.13 0.11 0.11 0.11 0.10 0.14 0.21 0.29 0.25 0.15 0.13 0.12 0.12 0.12 0.13 0.13 0.13 0.14 0.13 0.13 0.14
0.00 0.01 0.01 0.01 0.02 0.06 0.05 0.08 0.09 0.15 0.21 0.18 0.11 0.17 0.18 0.18 0.22 0.25 0.20 0.20 0.19 0.16 0.17 0.14 0.11 0.12 0.15 0.21 0.18 0.10 0.06 0.05 0.04 0.03 0.04 0.05 0.11 0.12 0.10 0.11 0.13 0.15 0.18
0.00 0.00 0.00 0.02 0.02 0.02 0.02 0.06 0.09 0.14 0.12 0.10 0.08 0.13 0.13 0.17 0.24 0.19 0.16 0.13 0.17 0.22 0.20 0.19 0.27 0.36 0.33 0.24 0.17 0.12 0.07 0.06 0.06 0.06 0.05 0.07 0.15 0.10 0.13 0.14 0.15 0.17 0.20
0.00 0.00 0.00 0.00 0.02 0.03 0.02 0.04 0.07 0.05 0.05 0.05 0.05 0.08 0.09 0.14 0.14 0.19 0.15 0.16 0.25 0.33 0.33 0.42 0.41 0.28 0.13 0.19 0.16 0.15 0.08 0.08 0.07 0.08 0.08 0.08 0.10 0.16 0.09 0.15 0.15 0.12 0.13
0.00 0.00 0.00 0.01 0.02 0.03 0.00 0.01 0.02 0.03 0.03 0.02 0.04 0.05 0.07 0.10 0.13 0.18 0.14 0.21 0.32 0.38 0.36 0.26 0.18 0.14 0.14 0.22 0.18 0.19 0.07 0.06 0.07 0.07 0.07 0.06 0.07 0.12 0.11 0.13 0.14 0.07 0.08
0.00 0.00 0.00 0.00 0.00 0.00 0.00 0.01 0.01 0.01 0.02 0.04 0.06 0.06 0.06 0.08 0.16 0.30 0.38 0.35 0.26 0.18 0.14 0.11 0.11 0.10 0.12 0.22 0.16 0.14 0.04 0.09 0.11 0.11 0.13 0.16 0.13 0.33 0.34 0.27 0.29 0.33 0.36
0.00 0.00 0.00 0.00 0.00 0.00 0.00 0.00 0.00 0.00 0.01 0.02 0.04 0.06 0.15 0.28 0.34 0.30 0.20 0.12 0.09 0.09 0.06 0.08 0.08 0.15 0.10 0.21 0.13 0.09 0.03 0.07 0.08 0.11 0.19 0.35 0.28 0.48 0.37 0.31 0.28 0.29 0.27
0.00 0.00 0.00 0.00 0.00 0.00 0.00 0.00 0.00 0.01 0.04 0.09 0.16 0.25 0.30 0.26 0.16 0.08 0.04 0.04 0.05 0.06 0.06 0.07 0.06 0.06 0.09 0.14 0.15 0.12 0.06 0.08 0.15 0.18 0.20 0.25 0.33 0.27 0.22 0.21 0.21 0.30 0.24
0.00 0.00 0.00 0.00 0.00 0.00 0.01 0.03 0.04 0.05 0.09 0.14 0.16 0.15 0.06 0.04 0.06 0.07 0.07 0.06 0.05 0.05 0.07 0.07 0.06 0.05 0.08 0.18 0.16 0.13 0.12 0.17 0.15 0.21 0.23 0.31 0.37 0.27 0.24 0.26 0.26 0.19 0.13
0.00 0.00 0.00 0.00 0.01 0.04 0.06 0.04 0.02 0.03 0.04 0.03 0.04 0.04 0.05 0.07 0.08 0.08 0.09 0.08 0.07 0.08 0.09 0.08 0.08 0.07 0.09 0.13 0.16 0.11 0.11 0.13 0.11 0.16 0.26 0.32 0.31 0.26 0.23 0.21 0.17 0.14 0.20
0.00 0.00 0.04 0.08 0.09 0.04 0.01 0.01 0.03 0.05 0.07 0.08 0.07 0.06 0.07 0.11 0.07 0.07 0.08 0.08 0.08 0.10 0.10 0.11 0.11 0.11 0.12 0.12 0.14 0.16 0.17 0.21 0.23 0.27 0.32 0.31 0.28 0.27 0.27 0.20 0.17 0.18 0.17
0.04 0.08 0.07 0.04 0.04 0.04 0.03 0.04 0.04 0.06 0.07 0.06 0.06 0.05 0.05 0.05 0.05 0.04 0.07 0.05 0.06 0.10 0.08 0.08 0.12 0.17 0.21 0.26 0.28 0.28 0.29 0.31 0.31 0.32 0.34 0.28 0.22 0.18 0.15 0.12 0.11 0.13 0.14
0.13 0.05 0.02 0.02 0.02 0.02 0.02 0.02 0.04 0.06 0.07 0.09 0.09 0.10 0.08 0.05 0.03 0.02 0.04 0.08 0.08 0.09 0.10 0.12 0.13 0.20 0.21 0.25 0.26 0.25 0.22 0.20 0.21 0.32 0.21 0.13 0.12 0.12 0.11 0.14 0.13 0.13 0.16

GFSMW_prec_precacc_072.txt.gz
Total_Precipitation_Accumulation
0.01 0.04 0.07 0.08 0.06 0.12 0.37 0.48 0.71 0.87 0.57 0.34 0.26 0.21 0.18 0.19 0.23 0.20 0.12 0.10 0.10 0.08 0.05 0.10 0.11 0.20 0.12 0.06 0.03 0.03 0.03 0.02 0.01 0.00 0.00 0.00 0.00 0.00 0.00 0.00 0.00 0.00 0.01
0.00 0.01 0.03 0.05 0.08 0.16 0.37 0.47 0.32 0.27 0.27 0.26 0.14 0.06 0.06 0.06 0.08 0.11 0.06 0.06 0.11 0.09 0.07 0.09 0.07 0.09 0.11 0.05 0.02 0.03 0.04 0.02 0.02 0.00 0.04 0.04 0.02 0.00 0.00 0.00 0.00 0.01 0.02
0.02 0.02 0.04 0.04 0.06 0.08 0.12 0.24 0.13 0.07 0.06 0.09 0.10 0.05 0.03 0.07 0.10 0.10 0.10 0.06 0.07 0.08 0.11 0.10 0.09 0.10 0.15 0.07 0.06 0.03 0.04 0.20 0.08 0.02 0.11 0.16 0.09 0.11 0.02 0.00 0.00 0.00 0.00
0.00 0.00 0.00 0.00 0.03 0.03 0.05 0.23 0.13 0.06 0.04 0.04 0.05 0.05 0.07 0.07 0.05 0.05 0.04 0.03 0.06 0.08 0.15 0.19 0.18 0.15 0.21 0.16 0.12 0.09 0.08 0.49 0.32 0.19 0.08 0.06 0.08 0.26 0.20 0.04 0.00 0.00 0.01
0.01 0.01 0.01 0.00 0.00 0.06 0.08 0.20 0.15 0.16 0.08 0.10 0.14 0.25 0.18 0.13 0.12 0.05 0.07 0.05 0.12 0.16 0.20 0.26 0.31 0.26 0.24 0.31 0.39 0.33 0.28 0.43 0.31 0.12 0.14 0.08 0.07 0.14 0.13 0.10 0.08 0.03 0.03
0.02 0.02 0.01 0.01 0.01 0.02 0.11 0.19 0.14 0.21 0.23 0.26 0.21 0.21 0.29 0.17 0.15 0.15 0.23 0.24 0.30 0.30 0.35 0.33 0.28 0.32 0.32 0.33 0.39 0.44 0.54 0.53 0.49 0.38 0.36 0.31 0.26 0.18 0.17 0.14 0.15 0.21 0.15
0.00 0.01 0.00 0.00 0.02 0.02 0.15 0.18 0.15 0.20 0.22 0.28 0.16 0.18 0.29 0.35 0.39 0.36 0.43 0.56 0.74 0.73 0.31 0.21 0.18 0.19 0.24 0.27 0.25 0.27 0.22 0.26 0.32 0.35 0.32 0.28 0.24 0.26 0.32 0.28 0.20 0.17 0.08
0.00 0.00 0.00 0.02 0.08 0.07 0.12 0.26 0.23 0.30 0.22 0.15 0.20 0.25 0.30 0.37 0.49 0.41 0.46 0.61 0.41 0.29 0.18 0.12 0.11 0.12 0.16 0.17 0.16 0.15 0.12 0.15 0.19 0.22 0.24 0.24 0.18 0.18 0.19 0.21 0.25 0.19 0.05
0.00 0.01 0.00 0.01 0.07 0.10 0.12 0.16 0.12 0.24 0.23 0.25 0.33 0.24 0.18 0.18 0.25 0.30 0.26 0.22 0.20 0.20 0.19 0.16 0.12 0.11 0.11 0.12 0.14 0.14 0.16 0.17 0.16 0.18 0.18 0.16 0.12 0.13 0.12 0.13 0.19 0.34 0.26
0.00 0.00 0.00 0.01 0.03 0.04 0.08 0.17 0.08 0.04 0.12 0.21 0.22 0.14 0.18 0.23 0.14 0.15 0.18 0.27 0.33 0.29 0.37 0.27 0.20 0.14 0.12 0.14 0.15 0.11 0.11 0.14 0.12 0.14 0.16 0.16 0.14 0.17 0.16 0.17 0.19 0.18 0.30
0.00 0.00 0.00 0.01 0.01 0.02 0.06 0.11 0.20 0.30 0.26 0.18 0.09 0.11 0.26 0.51 0.42 0.32 0.28 0.31 0.43 0.47 0.57 0.41 0.25 0.20 0.21 0.18 0.15 0.17 0.20 0.19 0.20 0.21 0.22 0.22 0.21 0.22 0.25 0.31 0.37 0.42 0.44
0.00 0.00 0.00 0.00 0.00 0.02 0.08 0.17 0.29 0.38 0.48 0.31 0.28 0.49 0.69 0.89 0.80 0.63 0.75 0.53 0.29 0.16 0.17 0.20 0.17 0.14 0.19 0.25 0.24 0.20 0.17 0.21 0.31 0.41 0.40 0.32 0.29 0.33 0.34 0.35 0.31 0.27 0.25
0.00 0.00 0.00 0.00 0.00 0.01 0.07 0.15 0.16 0.24 0.45 0.53 0.59 0.55 0.47 0.68 0.82 0.67 0.48 0.35 0.25 0.21 0.16 0.13 0.15 0.14 0.16 0.19 0.21 0.22 0.28 0.40 0.42 0.32 0.28 0.25 0.26 0.26 0.22 0.21 0.19 0.17 0.19
0.00 0.00 0.00 0.00 0.01 0.08 0.09 0.12 0.21 0.25 0.31 0.30 0.23 0.20 0.31 0.28 0.32 0.32 0.31 0.19 0.22 0.16 0.13 0.11 0.11 0.11 0.10 0.14 0.21 0.29 0.25 0.15 0.13 0.12 0.12 0.12 0.13 0.13 0.13 0.14 0.13 0.14 0.16
0.00 0.01 0.01 0.01 0.02 0.06 0.05 0.08 0.09 0.15 0.21 0.18 0.11 0.17 0.18 0.18 0.22 0.25 0.20 0.20 0.19 0.16 0.17 0.14 0.11 0.12 0.15 0.21 0.18 0.10 0.06 0.05 0.04 0.03 0.04 0.05 0.11 0.12 0.10 0.11 0.13 0.15 0.20
0.00 0.00 0.00 0.02 0.02 0.02 0.02 0.06 0.09 0.14 0.12 0.10 0.08 0.13 0.13 0.17 0.24 0.19 0.16 0.13 0.17 0.22 0.20 0.19 0.27 0.36 0.33 0.24 0.17 0.12 0.07 0.06 0.06 0.06 0.05 0.07 0.15 0.10 0.16 0.17 0.22 0.26 0.32
0.00 0.00 0.00 0.00 0.02 0.03 0.02 0.04 0.07 0.05 0.05 0.05 0.05 0.08 0.09 0.14 0.14 0.19 0.15 0.16 0.25 0.33 0.33 0.42 0.41 0.28 0.13 0.19 0.16 0.15 0.08 0.08 0.07 0.08 0.08 0.09 0.11 0.17 0.12 0.22 0.31 0.32 0.36
0.00 0.00 0.00 0.01 0.02 0.03 0.00 0.01 0.03 0.03 0.03 0.02 0.04 0.05 0.07 0.10 0.13 0.18 0.14 0.21 0.32 0.38 0.36 0.26 0.18 0.14 0.14 0.22 0.18 0.19 0.07 0.06 0.07 0.07 0.07 0.07 0.07 0.13 0.13 0.15 0.18 0.17 0.20
0.00 0.00 0.00 0.00 0.00 0.00 0.00 0.01 0.01 0.02 0.03 0.04 0.06 0.06 0.06 0.08 0.16 0.30 0.38 0.35 0.26 0.18 0.14 0.11 0.11 0.11 0.12 0.22 0.16 0.14 0.04 0.09 0.12 0.12 0.14 0.18 0.18 0.45 0.45 0.33 0.36 0.45 0.52
0.00 0.00 0.00 0.00 0.00 0.00 0.00 0.00 0.00 0.00 0.01 0.02 0.04 0.07 0.16 0.28 0.34 0.30 0.20 0.12 0.09 0.09 0.06 0.08 0.08 0.15 0.10 0.21 0.14 0.11 0.05 0.09 0.10 0.14 0.24 0.47 0.34 0.60 0.45 0.37 0.31 0.37 0.38
0.00 0.00 0.00 0.00 0.00 0.00 0.00 0.00 0.00 0.01 0.04 0.09 0.16 0.25 0.32 0.27 0.16 0.09 0.04 0.04 0.05 0.06 0.06 0.07 0.06 0.06 0.10 0.16 0.19 0.16 0.09 0.11 0.19 0.23 0.26 0.32 0.44 0.32 0.28 0.26 0.24 0.38 0.36
0.00 0.00 0.00 0.00 0.00 0.00 0.01 0.03 0.04 0.05 0.09 0.14 0.16 0.15 0.06 0.05 0.09 0.11 0.09 0.07 0.05 0.06 0.08 0.07 0.08 0.08 0.10 0.22 0.21 0.18 0.18 0.25 0.19 0.25 0.27 0.40 0.47 0.33 0.31 0.33 0.37 0.33 0.30
0.00 0.00 0.00 0.00 0.01 0.04 0.06 0.04 0.02 0.03 0.04 0.03 0.04 0.04 0.05 0.07 0.09 0.10 0.12 0.08 0.08 0.10 0.11 0.11 0.13 0.14 0.16 0.21 0.24 0.20 0.22 0.25 0.23 0.24 0.35 0.44 0.40 0.32 0.31 0.30 0.29 0.27 0.31
0.00 0.00 0.04 0.08 0.09 0.04 0.01 0.01 0.03 0.05 0.07 0.09 0.08 0.08 0.09 0.13 0.08 0.07 0.09 0.10 0.11 0.16 0.20 0.21 0.23 0.24 0.25 0.26 0.24 0.23 0.24 0.26 0.27 0.32 0.38 0.38 0.37 0.38 0.39 0.34 0.30 0.30 0.27
0.04 0.08 0.07 0.04 0.04 0.04 0.03 0.04 0.04 0.06 0.07 0.07 0.07 0.08 0.08 0.09 0.09 0.10 0.14 0.12 0.14 0.20 0.20 0.25 0.33 0.41 0.49 0.59 0.55 0.44 0.41 0.39 0.39 0.41 0.43 0.38 0.33 0.29 0.26 0.22 0.18 0.17 0.17
0.13 0.05 0.02 0.02 0.02 0.02 0.02 0.02 0.04 0.06 0.08 0.10 0.10 0.13 0.14 0.13 0.13 0.14 0.19 0.26 0.24 0.24 0.27 0.31 0.30 0.39 0.37 0.40 0.38 0.38 0.35 0.35 0.37 0.47 0.38 0.30 0.28 0.26 0.23 0.23 0.19 0.16 0.18